| time (UTC) | temp F | wind direction | speed MPH | gust MPH | rain 1hr in | rain 24hr in | rain mn in | humidity % | barometer mb |
| 20260510182944 | 78 | 180 | 4.0 | 12.0 | 0.00 | 0.00 | 0.00 | 21 | 1023.9 |
| 20260510182659 | 78 | 196 | 6.0 | 14.0 | 0.00 | 0.00 | 0.00 | 23 | 1023.9 |
| 20260510181939 | 77 | 131 | 7.0 | 14.0 | 0.00 | 0.00 | 0.00 | 21 | 1023.9 |
| 20260510181437 | 78 | 141 | 7.0 | 16.0 | 0.00 | 0.00 | 0.00 | 21 | 1024.0 |
| 20260510180938 | 78 | 184 | 7.0 | 16.0 | 0.00 | 0.00 | 0.00 | 23 | 1024.1 |
| 20260510180438 | 76 | 167 | 7.0 | 16.0 | 0.00 | 0.00 | 0.00 | 23 | 1023.8 |
| 20260510175934 | 76 | 150 | 7.0 | 16.0 | 0.00 | 0.00 | 0.00 | 24 | 1023.3 |
| 20260510175432 | 76 | 163 | 6.0 | 14.0 | 0.00 | 0.00 | 0.00 | 24 | 1023.4 |
| 20260510174933 | 75 | 138 | 4.0 | 9.0 | 0.00 | 0.00 | 0.00 | 24 | 1023.3 |
| 20260510174432 | 74 | 103 | 6.0 | 14.0 | 0.00 | 0.00 | 0.00 | 26 | 1023.0 |
| 20260510173924 | 74 | 121 | 7.0 | 14.0 | 0.00 | 0.00 | 0.00 | 25 | 1023.0 |
| 20260510173423 | 75 | 160 | 6.0 | 10.0 | 0.00 | 0.00 | 0.00 | 24 | 1023.6 |
| 20260510172919 | 76 | 161 | 6.0 | 15.0 | 0.00 | 0.00 | 0.00 | 25 | 1023.8 |
| 20260510172413 | 76 | 150 | 7.0 | 15.0 | 0.00 | 0.00 | 0.00 | 25 | 1023.6 |
| 20260510171914 | 76 | 176 | 6.0 | 13.0 | 0.00 | 0.00 | 0.00 | 24 | 1023.8 |
| 20260510171909 | 76 | 161 | 5.0 | 13.0 | 0.00 | 0.00 | 0.00 | 23 | 1023.6 |
| 20260510171833 | 75 | 136 | 4.0 | 13.0 | 0.00 | 0.00 | 0.00 | 24 | 1023.5 |
| 20260510170406 | 74 | 51 | 3.0 | 9.0 | 0.00 | 0.00 | 0.00 | 26 | 1023.2 |
| 20260510170354 | 74 | 96 | 4.0 | 10.0 | 0.00 | 0.00 | 0.00 | 26 | 1022.8 |
| 20260510165404 | 74 | 100 | 4.0 | 10.0 | 0.00 | 0.00 | 0.00 | 25 | 1022.9 |
| 20260510164905 | 73 | 75 | 4.0 | 12.0 | 0.00 | 0.00 | 0.00 | 28 | 1022.8 |
| 20260510164406 | 73 | 86 | 4.0 | 12.0 | 0.00 | 0.00 | 0.00 | 27 | 1022.8 |
| 20260510163856 | 72 | 71 | 4.0 | 9.0 | 0.00 | 0.00 | 0.00 | 27 | 1022.4 |
| 20260510163354 | 72 | 101 | 4.0 | 9.0 | 0.00 | 0.00 | 0.00 | 27 | 1022.4 |
| 20260510162854 | 72 | 63 | 4.0 | 9.0 | 0.00 | 0.00 | 0.00 | 28 | 1022.3 |
| 20260510162353 | 72 | 130 | 4.0 | 9.0 | 0.00 | 0.00 | 0.00 | 28 | 1022.3 |
| 20260510162123 | 71 | 54 | 4.0 | 8.0 | 0.00 | 0.00 | 0.00 | 28 | 1022.3 |
| 20260510161609 | 71 | 45 | 3.0 | 8.0 | 0.00 | 0.00 | 0.00 | 29 | 1022.2 |
| 20260510161108 | 71 | 45 | 3.0 | 8.0 | 0.00 | 0.00 | 0.00 | 29 | 1021.9 |
| 20260510160347 | 71 | 28 | 4.0 | 8.0 | 0.00 | 0.00 | 0.00 | 29 | 1021.9 |
| 20260510160101 | 70 | 138 | 2.0 | 8.0 | 0.00 | 0.00 | 0.00 | 29 | 1021.9 |
| 20260510155334 | 70 | 57 | 3.0 | 9.0 | 0.00 | 0.00 | 0.00 | 31 | 1021.7 |
| 20260510155323 | 69 | 57 | 4.0 | 9.0 | 0.00 | 0.00 | 0.00 | 30 | 1021.5 |
| 20260510154334 | 69 | 78 | 4.0 | 11.0 | 0.00 | 0.00 | 0.00 | 30 | 1021.3 |
| 20260510153833 | 69 | 43 | 4.0 | 11.0 | 0.00 | 0.00 | 0.00 | 30 | 1021.5 |
| 20260510153559 | 69 | 49 | 4.0 | 10.0 | 0.00 | 0.00 | 0.00 | 30 | 1021.7 |
| 20260510152834 | 69 | 50 | 3.0 | 10.0 | 0.00 | 0.00 | 0.00 | 30 | 1021.7 |
| 20260510152558 | 69 | 43 | 4.0 | 8.0 | 0.00 | 0.00 | 0.00 | 30 | 1021.6 |
| 20260510151834 | 69 | 55 | 4.0 | 9.0 | 0.00 | 0.00 | 0.00 | 31 | 1021.5 |
| 20260510151554 | 68 | 25 | 4.0 | 10.0 | 0.00 | 0.00 | 0.00 | 31 | 1021.3 |
| 20260510150831 | 68 | 38 | 4.0 | 10.0 | 0.00 | 0.00 | 0.00 | 31 | 1021.2 |
| 20260510150330 | 68 | 56 | 4.0 | 9.0 | 0.00 | 0.00 | 0.00 | 31 | 1021.1 |
| 20260510145826 | 68 | 30 | 5.0 | 9.0 | 0.00 | 0.00 | 0.00 | 31 | 1021.0 |
| 20260510145325 | 67 | 55 | 5.0 | 9.0 | 0.00 | 0.00 | 0.00 | 32 | 1021.0 |
| 20260510145043 | 67 | 44 | 4.0 | 9.0 | 0.00 | 0.00 | 0.00 | 30 | 1020.7 |
| 20260510144321 | 67 | 38 | 3.0 | 9.0 | 0.00 | 0.00 | 0.00 | 29 | 1020.7 |
| 20260510143817 | 67 | 26 | 4.0 | 8.0 | 0.00 | 0.00 | 0.00 | 29 | 1020.5 |
| 20260510143315 | 67 | 63 | 4.0 | 8.0 | 0.00 | 0.00 | 0.00 | 29 | 1020.4 |
| 20260510142812 | 66 | 41 | 3.0 | 8.0 | 0.00 | 0.00 | 0.00 | 29 | 1020.1 |
| 20260510142308 | 66 | 41 | 3.0 | 8.0 | 0.00 | 0.00 | 0.00 | 29 | 1019.9 |
| 20260510142035 | 66 | 40 | 4.0 | 8.0 | 0.00 | 0.00 | 0.00 | 29 | 1019.9 |
| 20260510141304 | 65 | 31 | 4.0 | 8.0 | 0.00 | 0.00 | 0.00 | 29 | 1019.6 |
| 20260510141028 | 65 | 29 | 4.0 | 8.0 | 0.00 | 0.00 | 0.00 | 28 | 1019.4 |
| 20260510140305 | 65 | 40 | 4.0 | 6.0 | 0.00 | 0.00 | 0.00 | 28 | 1019.3 |
| 20260510140026 | 64 | 29 | 3.0 | 7.0 | 0.00 | 0.00 | 0.00 | 28 | 1018.9 |
| 20260510135306 | 63 | 28 | 2.0 | 7.0 | 0.00 | 0.00 | 0.00 | 29 | 1018.5 |
| 20260510134803 | 62 | 22 | 3.0 | 8.0 | 0.00 | 0.00 | 0.00 | 30 | 1018.2 |
| 20260510134302 | 61 | 22 | 3.0 | 8.0 | 0.00 | 0.00 | 0.00 | 30 | 1017.7 |
| 20260510133804 | 60 | 355 | 1.0 | 6.0 | 0.00 | 0.00 | 0.00 | 32 | 1017.1 |
| 20260510133302 | 58 | 351 | 0.0 | 2.0 | 0.00 | 0.00 | 0.00 | 33 | 1016.3 |
| 20260510132803 | 56 | 351 | 0.0 | 0.0 | 0.00 | 0.00 | 0.00 | 36 | 1015.5 |
| 20260510132306 | 55 | 351 | 0.0 | 0.0 | 0.00 | 0.00 | 0.00 | 39 | 1014.9 |
| 20260510131800 | 53 | 351 | 0.0 | 0.0 | 0.00 | 0.00 | 0.00 | 39 | 1014.3 |
| 20260510131526 | 53 | 351 | 0.0 | 0.0 | 0.00 | 0.00 | 0.00 | 39 | 1013.9 |
| 20260510130752 | 52 | 351 | 0.0 | 0.0 | 0.00 | 0.00 | 0.00 | 39 | 1013.6 |
| 20260510130242 | 52 | 351 | 0.0 | 0.0 | 0.00 | 0.00 | 0.00 | 39 | 1013.2 |
| 20260510125737 | 51 | 351 | 0.0 | 0.0 | 0.00 | 0.00 | 0.00 | 40 | 1012.9 |
| 20260510125500 | 51 | 351 | 0.0 | 0.0 | 0.00 | 0.00 | 0.00 | 39 | 1012.7 |
| 20260510124732 | 51 | 351 | 0.0 | 0.0 | 0.00 | 0.00 | 0.00 | 39 | 1012.6 |
| 20260510124231 | 51 | 351 | 0.0 | 0.0 | 0.00 | 0.00 | 0.00 | 39 | 1012.3 |
| 20260510123728 | 51 | 351 | 0.0 | 0.0 | 0.00 | 0.00 | 0.00 | 38 | 1012.5 |
| 20260510123220 | 51 | 351 | 0.0 | 0.0 | 0.00 | 0.00 | 0.00 | 38 | 1012.6 |
| 20260510122716 | 51 | 351 | 0.0 | 0.0 | 0.00 | 0.00 | 0.00 | 38 | 1012.6 |
| 20260510122210 | 51 | 351 | 0.0 | 0.0 | 0.00 | 0.00 | 0.00 | 38 | 1012.5 |
| 20260510121704 | 51 | 351 | 0.0 | 0.0 | 0.00 | 0.00 | 0.00 | 38 | 1012.3 |
| 20260510121204 | 51 | 351 | 0.0 | 0.0 | 0.00 | 0.00 | 0.00 | 38 | 1012.3 |
| 20260510120709 | 51 | 351 | 0.0 | 0.0 | 0.00 | 0.00 | 0.00 | 37 | 1012.5 |
| 20260510120158 | 51 | 351 | 0.0 | 0.0 | 0.00 | 0.00 | 0.00 | 37 | 1012.6 |
| 20260510115654 | 52 | 351 | 0.0 | 0.0 | 0.00 | 0.00 | 0.00 | 37 | 1012.6 |
| 20260510115139 | 52 | 351 | 0.0 | 0.0 | 0.00 | 0.00 | 0.00 | 37 | 1012.6 |
| 20260510114647 | 52 | 351 | 0.0 | 0.0 | 0.00 | 0.00 | 0.00 | 37 | 1012.6 |
| 20260510114139 | 52 | 351 | 0.0 | 0.0 | 0.00 | 0.00 | 0.00 | 37 | 1012.7 |
| 20260510113637 | 52 | 351 | 0.0 | 0.0 | 0.00 | 0.00 | 0.00 | 36 | 1012.7 |
| 20260510113129 | 53 | 351 | 0.0 | 0.0 | 0.00 | 0.00 | 0.00 | 35 | 1012.8 |
| 20260510112630 | 53 | 351 | 0.0 | 0.0 | 0.00 | 0.00 | 0.00 | 35 | 1012.9 |
| 20260510112543 | 53 | 351 | 0.0 | 1.0 | 0.00 | 0.00 | 0.00 | 35 | 1013.1 |
| 20260510111830 | 54 | 351 | 1.0 | 5.0 | 0.00 | 0.00 | 0.00 | 35 | 1012.9 |
| 20260510111104 | 54 | 351 | 2.0 | 5.0 | 0.00 | 0.00 | 0.00 | 35 | 1012.9 |
| 20260510110555 | 54 | 351 | 1.0 | 4.0 | 0.00 | 0.00 | 0.00 | 35 | 1012.7 |
| 20260510110049 | 54 | 351 | 0.0 | 1.0 | 0.00 | 0.00 | 0.00 | 34 | 1012.7 |
| 20260510105543 | 54 | 351 | 1.0 | 2.0 | 0.00 | 0.00 | 0.00 | 34 | 1013.1 |
| 20260510105300 | 54 | 351 | 1.0 | 4.0 | 0.00 | 0.00 | 0.00 | 34 | 1013.1 |
| 20260510104537 | 55 | 351 | 1.0 | 4.0 | 0.00 | 0.00 | 0.00 | 34 | 1013.1 |
| 20260510104034 | 55 | 351 | 1.0 | 3.0 | 0.00 | 0.00 | 0.00 | 34 | 1013.1 |
| 20260510103533 | 55 | 351 | 0.0 | 3.0 | 0.00 | 0.00 | 0.00 | 33 | 1013.1 |
| 20260510103032 | 56 | 351 | 0.0 | 0.0 | 0.00 | 0.00 | 0.00 | 34 | 1013.2 |
| 20260510102532 | 56 | 351 | 0.0 | 2.0 | 0.00 | 0.00 | 0.00 | 33 | 1013.3 |
| 20260510102037 | 56 | 351 | 0.0 | 2.0 | 0.00 | 0.00 | 0.00 | 32 | 1013.6 |
| 20260510101516 | 56 | 351 | 0.0 | 0.0 | 0.00 | 0.00 | 0.00 | 32 | 1013.8 |
| 20260510101011 | 57 | 351 | 0.0 | 1.0 | 0.00 | 0.00 | 0.00 | 32 | 1013.8 |
| 20260510100739 | 57 | 351 | 0.0 | 1.0 | 0.00 | 0.00 | 0.00 | 32 | 1013.9 |
| 20260510100226 | 57 | 351 | 0.0 | 3.0 | 0.00 | 0.00 | 0.00 | 31 | 1013.9 |
| 20260510095502 | 58 | 351 | 1.0 | 5.0 | 0.00 | 0.00 | 0.00 | 32 | 1014.0 |
| 20260510095000 | 58 | 351 | 1.0 | 5.0 | 0.00 | 0.00 | 0.00 | 31 | 1014.0 |
| 20260510094506 | 58 | 351 | 0.0 | 2.0 | 0.00 | 0.00 | 0.00 | 31 | 1014.0 |
| 20260510094003 | 58 | 351 | 0.0 | 2.0 | 0.00 | 0.00 | 0.00 | 30 | 1014.0 |
| 20260510093449 | 58 | 351 | 0.0 | 1.0 | 0.00 | 0.00 | 0.00 | 30 | 1014.0 |
| 20260510093208 | 58 | 351 | 1.0 | 5.0 | 0.00 | 0.00 | 0.00 | 30 | 1013.9 |
| 20260510092450 | 58 | 351 | 1.0 | 5.0 | 0.00 | 0.00 | 0.00 | 30 | 1013.9 |
| 20260510091943 | 58 | 351 | 0.0 | 0.0 | 0.00 | 0.00 | 0.00 | 30 | 1013.8 |
| 20260510091431 | 58 | 351 | 0.0 | 1.0 | 0.00 | 0.00 | 0.00 | 30 | 1013.7 |
| 20260510090930 | 58 | 351 | 0.0 | 3.0 | 0.00 | 0.00 | 0.00 | 31 | 1013.7 |
| 20260510090654 | 58 | 351 | 0.0 | 3.0 | 0.00 | 0.00 | 0.00 | 30 | 1013.4 |
| 20260510085932 | 58 | 351 | 1.0 | 5.0 | 0.00 | 0.00 | 0.00 | 30 | 1013.6 |
| 20260510085431 | 58 | 351 | 2.0 | 5.0 | 0.00 | 0.00 | 0.00 | 30 | 1013.3 |
| 20260510084931 | 57 | 5 | 1.0 | 6.0 | 0.00 | 0.00 | 0.00 | 31 | 1013.1 |
| 20260510084430 | 57 | 9 | 0.0 | 6.0 | 0.00 | 0.00 | 0.00 | 32 | 1012.8 |
| 20260510083931 | 56 | 35 | 0.0 | 0.0 | 0.00 | 0.00 | 0.00 | 32 | 1012.8 |
| 20260510083427 | 56 | 35 | 0.0 | 0.0 | 0.00 | 0.00 | 0.00 | 32 | 1012.6 |
| 20260510082915 | 56 | 35 | 0.0 | 0.0 | 0.00 | 0.00 | 0.00 | 32 | 1012.6 |
| 20260510082627 | 56 | 35 | 0.0 | 0.0 | 0.00 | 0.00 | 0.00 | 32 | 1012.3 |
| 20260510081903 | 56 | 35 | 0.0 | 0.0 | 0.00 | 0.00 | 0.00 | 31 | 1012.5 |
| 20260510081404 | 56 | 35 | 0.0 | 0.0 | 0.00 | 0.00 | 0.00 | 31 | 1012.7 |
| 20260510080904 | 57 | 35 | 0.0 | 0.0 | 0.00 | 0.00 | 0.00 | 32 | 1012.7 |
| 20260510080402 | 57 | 35 | 0.0 | 0.0 | 0.00 | 0.00 | 0.00 | 31 | 1012.7 |
| 20260510075902 | 57 | 35 | 0.0 | 0.0 | 0.00 | 0.00 | 0.00 | 31 | 1012.8 |
| 20260510075403 | 57 | 35 | 0.0 | 0.0 | 0.00 | 0.00 | 0.00 | 31 | 1013.1 |
| 20260510074903 | 57 | 35 | 0.0 | 0.0 | 0.00 | 0.00 | 0.00 | 30 | 1013.1 |
| 20260510074404 | 58 | 35 | 0.0 | 0.0 | 0.00 | 0.00 | 0.00 | 30 | 1013.2 |
| 20260510073902 | 58 | 35 | 0.0 | 0.0 | 0.00 | 0.00 | 0.00 | 30 | 1013.2 |
| 20260510073333 | 58 | 35 | 0.0 | 0.0 | 0.00 | 0.00 | 0.00 | 29 | 1013.3 |
| 20260510072832 | 58 | 35 | 0.0 | 0.0 | 0.00 | 0.00 | 0.00 | 29 | 1013.3 |
| 20260510072331 | 59 | 35 | 0.0 | 0.0 | 0.00 | 0.00 | 0.00 | 29 | 1013.7 |
| 20260510071832 | 59 | 35 | 0.0 | 0.0 | 0.00 | 0.00 | 0.00 | 28 | 1013.8 |
| 20260510071329 | 60 | 35 | 0.0 | 0.0 | 0.00 | 0.00 | 0.00 | 28 | 1013.9 |
| 20260510071039 | 60 | 35 | 0.0 | 0.0 | 0.00 | 0.00 | 0.00 | 27 | 1014.4 |
| 20260510070538 | 61 | 35 | 0.0 | 0.0 | 0.00 | 0.00 | 0.00 | 27 | 1014.6 |
| 20260510070021 | 62 | 35 | 0.0 | 0.0 | 0.00 | 0.00 | 0.00 | 26 | 1014.9 |
| 20260510065306 | 62 | 35 | 0.0 | 0.0 | 0.00 | 0.00 | 0.00 | 26 | 1015.0 |
| 20260510064803 | 62 | 35 | 0.0 | 0.0 | 0.00 | 0.00 | 0.00 | 25 | 1014.8 |
| 20260510064259 | 63 | 35 | 0.0 | 2.0 | 0.00 | 0.00 | 0.00 | 25 | 1015.0 |
| 20260510063758 | 63 | 35 | 1.0 | 5.0 | 0.00 | 0.00 | 0.00 | 25 | 1015.3 |
| 20260510063730 | 63 | 35 | 2.0 | 5.0 | 0.00 | 0.00 | 0.00 | 25 | 1015.3 |
| 20260510063452 | 64 | 35 | 1.0 | 6.0 | 0.00 | 0.00 | 0.00 | 25 | 1015.5 |
| 20260510062235 | 64 | 35 | 2.0 | 6.0 | 0.00 | 0.00 | 0.00 | 25 | 1015.4 |
| 20260510061732 | 64 | 36 | 2.0 | 6.0 | 0.00 | 0.00 | 0.00 | 25 | 1015.4 |
| 20260510061231 | 64 | 36 | 2.0 | 7.0 | 0.00 | 0.00 | 0.00 | 25 | 1015.5 |
| 20260510060732 | 64 | 36 | 3.0 | 8.0 | 0.00 | 0.00 | 0.00 | 24 | 1015.6 |
| 20260510060228 | 64 | 41 | 3.0 | 8.0 | 0.00 | 0.00 | 0.00 | 25 | 1015.6 |
| 20260510055725 | 64 | 51 | 2.0 | 7.0 | 0.00 | 0.00 | 0.00 | 25 | 1015.7 |
| 20260510055650 | 65 | 39 | 2.0 | 6.0 | 0.00 | 0.00 | 0.00 | 25 | 1015.9 |
| 20260510055644 | 65 | 39 | 3.0 | 9.0 | 0.00 | 0.00 | 0.00 | 24 | 1015.9 |
| 20260510054209 | 65 | 39 | 3.0 | 9.0 | 0.00 | 0.00 | 0.00 | 25 | 1015.9 |
| 20260510053938 | 64 | 27 | 3.0 | 8.0 | 0.00 | 0.00 | 0.00 | 25 | 1015.7 |
| 20260510053203 | 64 | 28 | 3.0 | 8.0 | 0.00 | 0.00 | 0.00 | 25 | 1015.7 |
| 20260510052703 | 64 | 26 | 3.0 | 8.0 | 0.00 | 0.00 | 0.00 | 25 | 1015.6 |
| 20260510052202 | 64 | 26 | 2.0 | 7.0 | 0.00 | 0.00 | 0.00 | 25 | 1015.7 |
| 20260510051703 | 65 | 25 | 2.0 | 6.0 | 0.00 | 0.00 | 0.00 | 24 | 1016.0 |
| 20260510051202 | 65 | 25 | 2.0 | 5.0 | 0.00 | 0.00 | 0.00 | 24 | 1016.0 |
| 20260510050644 | 65 | 25 | 3.0 | 6.0 | 0.00 | 0.00 | 0.00 | 24 | 1016.0 |
| 20260510050143 | 65 | 25 | 3.0 | 7.0 | 0.00 | 0.00 | 0.00 | 23 | 1016.0 |
| 20260510045642 | 65 | 24 | 2.0 | 7.0 | 0.00 | 0.00 | 0.00 | 23 | 1016.2 |
| 20260510045138 | 66 | 22 | 3.0 | 7.0 | 0.00 | 0.00 | 0.00 | 23 | 1016.2 |
| 20260510044634 | 66 | 22 | 4.0 | 10.0 | 0.00 | 0.00 | 0.00 | 23 | 1016.3 |
| 20260510044132 | 66 | 11 | 4.0 | 10.0 | 0.00 | 0.00 | 0.00 | 23 | 1016.2 |
| 20260510043631 | 66 | 0 | 4.0 | 10.0 | 0.00 | 0.00 | 0.00 | 23 | 1016.2 |
| 20260510043131 | 65 | 0 | 4.0 | 10.0 | 0.00 | 0.00 | 0.00 | 23 | 1016.0 |
| 20260510042631 | 65 | 28 | 3.0 | 7.0 | 0.00 | 0.00 | 0.00 | 22 | 1015.7 |
| 20260510042132 | 65 | 355 | 3.0 | 7.0 | 0.00 | 0.00 | 0.00 | 22 | 1015.6 |
| 20260510041631 | 64 | 349 | 3.0 | 7.0 | 0.00 | 0.00 | 0.00 | 22 | 1015.4 |
| 20260510041131 | 64 | 348 | 3.0 | 6.0 | 0.00 | 0.00 | 0.00 | 21 | 1015.1 |
| 20260510040632 | 63 | 325 | 1.0 | 6.0 | 0.00 | 0.00 | 0.00 | 20 | 1014.9 |
| 20260510040131 | 64 | 305 | 1.0 | 3.0 | 0.00 | 0.00 | 0.00 | 18 | 1014.9 |
| 20260510035631 | 64 | 305 | 1.0 | 4.0 | 0.00 | 0.00 | 0.00 | 18 | 1014.9 |
| 20260510035132 | 64 | 305 | 2.0 | 5.0 | 0.00 | 0.00 | 0.00 | 18 | 1015.0 |
| 20260510034854 | 64 | 305 | 2.0 | 6.0 | 0.00 | 0.00 | 0.00 | 18 | 1015.0 |
| 20260510034130 | 65 | 305 | 3.0 | 6.0 | 0.00 | 0.00 | 0.00 | 18 | 1015.0 |
| 20260510033629 | 65 | 305 | 2.0 | 6.0 | 0.00 | 0.00 | 0.00 | 17 | 1014.9 |
| 20260510033125 | 65 | 305 | 2.0 | 6.0 | 0.00 | 0.00 | 0.00 | 17 | 1014.9 |
| 20260510032844 | 65 | 305 | 2.0 | 5.0 | 0.00 | 0.00 | 0.00 | 17 | 1014.9 |
| 20260510032121 | 65 | 305 | 2.0 | 5.0 | 0.00 | 0.00 | 0.00 | 17 | 1015.0 |
| 20260510031621 | 65 | 305 | 2.0 | 5.0 | 0.00 | 0.00 | 0.00 | 17 | 1015.0 |
| 20260510031124 | 66 | 305 | 2.0 | 5.0 | 0.00 | 0.00 | 0.00 | 17 | 1015.0 |
| 20260510030621 | 66 | 305 | 2.0 | 5.0 | 0.00 | 0.00 | 0.00 | 17 | 1015.1 |
| 20260510030105 | 66 | 305 | 2.0 | 5.0 | 0.00 | 0.00 | 0.00 | 16 | 1014.9 |
| 20260510025813 | 66 | 305 | 2.0 | 6.0 | 0.00 | 0.00 | 0.00 | 16 | 1014.8 |
| 20260510025051 | 66 | 304 | 2.0 | 6.0 | 0.00 | 0.00 | 0.00 | 16 | 1014.9 |
| 20260510024550 | 67 | 304 | 2.0 | 5.0 | 0.00 | 0.00 | 0.00 | 16 | 1014.9 |
| 20260510024044 | 67 | 304 | 2.0 | 5.0 | 0.00 | 0.00 | 0.00 | 16 | 1015.0 |
| 20260510023541 | 67 | 304 | 2.0 | 5.0 | 0.00 | 0.00 | 0.00 | 16 | 1015.0 |
| 20260510023039 | 68 | 304 | 1.0 | 4.0 | 0.00 | 0.00 | 0.00 | 15 | 1015.3 |
| 20260510022533 | 69 | 304 | 0.0 | 2.0 | 0.00 | 0.00 | 0.00 | 15 | 1015.5 |
| 20260510022259 | 70 | 304 | 1.0 | 5.0 | 0.00 | 0.00 | 0.00 | 15 | 1015.9 |
| 20260510021527 | 71 | 304 | 2.0 | 5.0 | 0.00 | 0.00 | 0.00 | 14 | 1016.0 |
| 20260510021026 | 71 | 304 | 4.0 | 7.0 | 0.00 | 0.00 | 0.00 | 14 | 1016.2 |
| 20260510020526 | 72 | 304 | 4.0 | 9.0 | 0.00 | 0.00 | 0.00 | 14 | 1016.3 |
| 20260510020026 | 72 | 311 | 4.0 | 9.0 | 0.00 | 0.00 | 0.00 | 13 | 1016.3 |
| 20260510015524 | 73 | 300 | 4.0 | 11.0 | 0.00 | 0.00 | 0.00 | 13 | 1016.7 |
| 20260510015023 | 73 | 284 | 5.0 | 11.0 | 0.00 | 0.00 | 0.00 | 13 | 1016.7 |
| 20260510014524 | 74 | 294 | 5.0 | 11.0 | 0.00 | 0.00 | 0.00 | 13 | 1017.0 |
| 20260510014020 | 74 | 289 | 7.0 | 14.0 | 0.00 | 0.00 | 0.00 | 13 | 1017.2 |
| 20260510013739 | 75 | 290 | 8.0 | 15.0 | 0.00 | 0.00 | 0.00 | 13 | 1017.2 |
| 20260510013017 | 75 | 295 | 8.0 | 16.0 | 0.00 | 0.00 | 0.00 | 12 | 1017.4 |
| 20260510012512 | 76 | 283 | 6.0 | 16.0 | 0.00 | 0.00 | 0.00 | 12 | 1017.4 |
| 20260510012011 | 77 | 296 | 5.0 | 12.0 | 0.00 | 0.00 | 0.00 | 12 | 1017.8 |
| 20260510011505 | 77 | 280 | 8.0 | 16.0 | 0.00 | 0.00 | 0.00 | 12 | 1017.8 |
| 20260510011005 | 77 | 280 | 9.0 | 19.0 | 0.00 | 0.00 | 0.00 | 12 | 1017.9 |
| 20260510010731 | 77 | 246 | 8.0 | 19.0 | 0.00 | 0.00 | 0.00 | 12 | 1018.0 |
| 20260510010004 | 78 | 294 | 9.0 | 19.0 | 0.00 | 0.00 | 0.00 | 11 | 1018.0 |
| 20260510005503 | 78 | 280 | 9.0 | 19.0 | 0.00 | 0.00 | 0.00 | 11 | 1018.4 |
| 20260510005003 | 78 | 286 | 8.0 | 14.0 | 0.00 | 0.00 | 0.00 | 11 | 1018.4 |
| 20260510004501 | 79 | 298 | 8.0 | 14.0 | 0.00 | 0.00 | 0.00 | 11 | 1018.7 |
| 20260510004001 | 79 | 321 | 10.0 | 20.0 | 0.00 | 0.00 | 0.00 | 11 | 1018.5 |
| 20260510003501 | 79 | 306 | 11.0 | 24.0 | 0.00 | 0.00 | 0.00 | 11 | 1018.5 |
| 20260510003219 | 80 | 313 | 11.0 | 21.0 | 0.00 | 0.00 | 0.00 | 10 | 1019.0 |
| 20260510003207 | 80 | 289 | 11.0 | 24.0 | 0.00 | 0.00 | 0.00 | 11 | 1018.8 |
| 20260510001956 | 81 | 286 | 11.0 | 21.0 | 0.00 | 0.00 | 0.00 | 10 | 1019.3 |
| 20260510001456 | 81 | 289 | 10.0 | 20.0 | 0.00 | 0.00 | 0.00 | 10 | 1019.3 |
| 20260510001218 | 82 | 286 | 8.0 | 20.0 | 0.00 | 0.00 | 0.00 | 10 | 1019.5 |
| 20260510000457 | 82 | 307 | 8.0 | 16.0 | 0.00 | 0.00 | 0.00 | 10 | 1019.6 |
| 20260509235956 | 82 | 213 | 9.0 | 19.0 | 0.00 | 0.00 | 0.00 | 10 | 1019.5 |
| 20260509235454 | 82 | 265 | 10.0 | 19.0 | 0.00 | 0.00 | 0.00 | 10 | 1019.5 |
| 20260509234955 | 82 | 309 | 10.0 | 20.0 | 0.00 | 0.00 | 0.00 | 10 | 1019.4 |
| 20260509234455 | 81 | 273 | 11.0 | 21.0 | 0.00 | 0.00 | 0.00 | 10 | 1019.3 |
| 20260509233956 | 80 | 312 | 12.0 | 22.0 | 0.00 | 0.00 | 0.00 | 10 | 1019.1 |
| 20260509233718 | 81 | 298 | 10.0 | 22.0 | 0.00 | 0.00 | 0.00 | 10 | 1019.3 |
| 20260509233441 | 80 | 313 | 8.0 | 14.0 | 0.00 | 0.00 | 0.00 | 11 | 1019.0 |
| 20260509232456 | 80 | 240 | 10.0 | 20.0 | 0.00 | 0.00 | 0.00 | 10 | 1018.9 |
| 20260509231952 | 81 | 302 | 11.0 | 20.0 | 0.00 | 0.00 | 0.00 | 10 | 1019.4 |
| 20260509231452 | 82 | 271 | 11.0 | 24.0 | 0.00 | 0.00 | 0.00 | 9 | 1019.5 |
| 20260509231220 | 83 | 326 | 10.0 | 24.0 | 0.00 | 0.00 | 0.00 | 8 | 1020.1 |
| 20260509230456 | 84 | 250 | 9.0 | 20.0 | 0.00 | 0.00 | 0.00 | 9 | 1020.1 |
| 20260509230228 | 84 | 289 | 7.0 | 19.0 | 0.00 | 0.00 | 0.00 | 10 | 1020.2 |
| 20260509225705 | 84 | 315 | 8.0 | 16.0 | 0.00 | 0.00 | 0.00 | 10 | 1020.4 |
| 20260509224948 | 83 | 302 | 10.0 | 20.0 | 0.00 | 0.00 | 0.00 | 10 | 1020.0 |
| 20260509224437 | 84 | 311 | 11.0 | 20.0 | 0.00 | 0.00 | 0.00 | 9 | 1020.2 |
| 20260509223932 | 85 | 304 | 10.0 | 19.0 | 0.00 | 0.00 | 0.00 | 9 | 1020.7 |
| 20260509223428 | 85 | 288 | 9.0 | 20.0 | 0.00 | 0.00 | 0.00 | 10 | 1020.8 |
| 20260509223135 | 85 | 259 | 9.0 | 20.0 | 0.00 | 0.00 | 0.00 | 10 | 1021.0 |
| 20260509222411 | 85 | 225 | 9.0 | 20.0 | 0.00 | 0.00 | 0.00 | 10 | 1020.6 |
| 20260509221904 | 85 | 257 | 9.0 | 20.0 | 0.00 | 0.00 | 0.00 | 10 | 1020.8 |
| 20260509221353 | 85 | 254 | 9.0 | 16.0 | 0.00 | 0.00 | 0.00 | 10 | 1020.6 |
| 20260509221329 | 84 | 287 | 11.0 | 25.0 | 0.00 | 0.00 | 0.00 | 9 | 1020.6 |
| 20260509220346 | 84 | 300 | 10.0 | 25.0 | 0.00 | 0.00 | 0.00 | 9 | 1020.7 |
| 20260509215846 | 85 | 296 | 8.0 | 19.0 | 0.00 | 0.00 | 0.00 | 10 | 1021.0 |
| 20260509215346 | 85 | 338 | 8.0 | 19.0 | 0.00 | 0.00 | 0.00 | 10 | 1020.8 |
| 20260509214843 | 85 | 264 | 8.0 | 18.0 | 0.00 | 0.00 | 0.00 | 10 | 1020.8 |
| 20260509214342 | 85 | 294 | 11.0 | 25.0 | 0.00 | 0.00 | 0.00 | 10 | 1020.7 |
| 20260509213840 | 85 | 296 | 11.0 | 25.0 | 0.00 | 0.00 | 0.00 | 10 | 1021.0 |
| 20260509213341 | 85 | 292 | 9.0 | 20.0 | 0.00 | 0.00 | 0.00 | 9 | 1021.2 |
| 20260509212840 | 85 | 251 | 8.0 | 14.0 | 0.00 | 0.00 | 0.00 | 10 | 1021.2 |
| 20260509212340 | 85 | 317 | 8.0 | 16.0 | 0.00 | 0.00 | 0.00 | 11 | 1021.3 |
| 20260509212103 | 85 | 318 | 7.0 | 16.0 | 0.00 | 0.00 | 0.00 | 11 | 1021.6 |
| 20260509211338 | 84 | 310 | 7.0 | 14.0 | 0.00 | 0.00 | 0.00 | 11 | 1021.3 |
| 20260509210838 | 83 | 290 | 9.0 | 20.0 | 0.00 | 0.00 | 0.00 | 11 | 1020.8 |
| 20260509210337 | 82 | 298 | 9.0 | 20.0 | 0.00 | 0.00 | 0.00 | 12 | 1020.8 |
| 20260509205832 | 84 | 300 | 8.0 | 18.0 | 0.00 | 0.00 | 0.00 | 11 | 1021.3 |
| 20260509205332 | 83 | 296 | 11.0 | 22.0 | 0.00 | 0.00 | 0.00 | 12 | 1021.2 |
| 20260509204833 | 82 | 300 | 11.0 | 24.0 | 0.00 | 0.00 | 0.00 | 12 | 1021.0 |
| 20260509204336 | 84 | 294 | 9.0 | 24.0 | 0.00 | 0.00 | 0.00 | 11 | 1021.5 |
| 20260509203838 | 83 | 335 | 8.0 | 15.0 | 0.00 | 0.00 | 0.00 | 12 | 1021.6 |
| 20260509203331 | 85 | 282 | 10.0 | 21.0 | 0.00 | 0.00 | 0.00 | 11 | 1022.1 |
| 20260509202832 | 84 | 271 | 10.0 | 21.0 | 0.00 | 0.00 | 0.00 | 11 | 1022.1 |
| 20260509202324 | 85 | 284 | 9.0 | 20.0 | 0.00 | 0.00 | 0.00 | 12 | 1022.2 |
| 20260509202041 | 84 | 349 | 8.0 | 14.0 | 0.00 | 0.00 | 0.00 | 12 | 1022.1 |
| 20260509201320 | 84 | 333 | 9.0 | 18.0 | 0.00 | 0.00 | 0.00 | 12 | 1022.2 |
| 20260509200820 | 83 | 327 | 10.0 | 19.0 | 0.00 | 0.00 | 0.00 | 12 | 1022.1 |
| 20260509200319 | 83 | 267 | 9.0 | 19.0 | 0.00 | 0.00 | 0.00 | 12 | 1022.2 |
| 20260509195818 | 84 | 302 | 8.0 | 18.0 | 0.00 | 0.00 | 0.00 | 12 | 1022.4 |
| 20260509195319 | 83 | 290 | 10.0 | 22.0 | 0.00 | 0.00 | 0.00 | 11 | 1022.2 |
| 20260509194818 | 83 | 308 | 12.0 | 22.0 | 0.00 | 0.00 | 0.00 | 12 | 1022.1 |
| 20260509194537 | 82 | 304 | 8.0 | 22.0 | 0.00 | 0.00 | 0.00 | 11 | 1021.7 |
| 20260509193814 | 82 | 317 | 7.0 | 21.0 | 0.00 | 0.00 | 0.00 | 12 | 1021.5 |
| 20260509193311 | 82 | 290 | 8.0 | 21.0 | 0.00 | 0.00 | 0.00 | 11 | 1021.6 |
| 20260509193303 | 80 | 315 | 8.0 | 16.0 | 0.00 | 0.00 | 0.00 | 13 | 1021.0 |
| 20260509192306 | 80 | 340 | 9.0 | 16.0 | 0.00 | 0.00 | 0.00 | 12 | 1021.1 |
| 20260509192237 | 82 | 339 | 9.0 | 19.0 | 0.00 | 0.00 | 0.00 | 11 | 1021.8 |
| 20260509191509 | 83 | 244 | 10.0 | 19.0 | 0.00 | 0.00 | 0.00 | 12 | 1022.3 |
| 20260509190751 | 83 | 252 | 8.0 | 16.0 | 0.00 | 0.00 | 0.00 | 12 | 1022.3 |
| 20260509190250 | 82 | 273 | 5.0 | 13.0 | 0.00 | 0.00 | 0.00 | 12 | 1022.1 |
| 20260509185749 | 81 | 213 | 5.0 | 10.0 | 0.00 | 0.00 | 0.00 | 13 | 1021.6 |
| 20260509185243 | 80 | 302 | 4.0 | 10.0 | 0.00 | 0.00 | 0.00 | 15 | 1021.5 |
| 20260509184742 | 79 | 126 | 4.0 | 9.0 | 0.00 | 0.00 | 0.00 | 15 | 1021.2 |
| 20260509184239 | 79 | 122 | 2.0 | 8.0 | 0.00 | 0.00 | 0.00 | 14 | 1021.1 |
| 20260509183959 | 78 | 204 | 2.0 | 5.0 | 0.00 | 0.00 | 0.00 | 15 | 1021.1 |
| 20260509183503 | 79 | 204 | 2.0 | 6.0 | 0.00 | 0.00 | 0.00 | 15 | 1021.3 |